[[{"header":{"parameterUnit":"m.s-1","parameterCategory":1,"la1":30.2991,"la2":30.254,"lo1":-89.0895,"lo2":-89.0444,"dy":0.0017,"dx":0.0017,"nx":28,"ny":28,"refTime":"2024-10-17T21:00:00:Z","depth":0,"parameterNumber":2,"parameterNumberName":"U-component_of_WINDS"},"data":[0,0,0,0,0,0,0,0,0,0,0,0,0,0,0,0,0,0,0,0,0,0,0,0,0,0,0,0,0,0,0,0,0,0,0,0,0,0,0,0,0,0,0,0,0,0,0,0,0,0,0,0,0,0,0,0,0,0,-5.6365,-5.6366,0,-5.6449,-5.645,-5.6451,-5.6284,-5.6278,-5.6273,-5.6267,-5.6355,-5.6362,-5.637,0,0,0,0,0,0,0,0,0,0,0,0,0,-5.6059,-5.6066,-5.6365,-5.6366,-5.6367,-5.6449,-5.645,-5.6451,-5.6285,-5.6278,-5.6271,-5.6265,-5.6353,-5.6362,-5.6371,0,0,0,0,0,0,0,0,0,0,0,0,0,-5.6173,-5.6068,-5.6365,-5.6294,-5.6288,-5.6449,-5.645,-5.6452,-5.6286,-5.6278,-5.627,-5.6262,-5.635,-5.6361,-5.6372,-5.6606,0,0,-5.6406,-5.6411,0,0,0,0,0,0,0,0,-5.6167,-5.6184,-5.6303,-5.6299,-5.6293,-5.6347,-5.6374,-5.6504,-5.6288,-5.6287,-5.6267,-5.6258,-5.6359,-5.6369,-5.6403,-5.661,-5.6614,-5.6407,-5.6414,-5.6419,-5.6422,0,0,0,0,0,0,0,-5.6159,-5.618,-5.6398,-5.6305,-5.6299,-5.6258,-5.6265,-5.6398,-5.6369,-5.6286,-5.6274,-5.6287,-5.6355,-5.6393,-5.6404,-5.6615,-5.6407,-5.6417,-5.6424,-5.6428,-5.7016,-5.7025,0,0,0,0,0,0,-5.616,-5.6174,-5.6396,-5.6401,-5.6208,-5.627,-5.6278,-5.6338,-5.6367,-5.6363,-5.6294,-5.6279,-5.6378,-5.6391,-5.6407,-5.6681,-5.6418,-5.6429,-5.6435,-5.7008,-5.7018,-5.7028,0,0,0,0,0,0,-5.6154,-5.6181,-5.6392,-5.6284,-5.6308,-5.6284,-5.6353,-5.6344,-5.6382,-5.6372,-5.6366,-5.6338,-5.6372,-5.6391,-5.6557,-5.6682,-5.6434,-5.6444,-5.6997,-5.7011,-5.7023,-5.7234,0,0,0,0,0,0,-5.6146,-5.618,-5.6269,-5.6288,-5.6314,-5.6542,-5.6361,-5.6352,-5.6402,-5.6383,-5.6412,-5.6409,-5.6367,-5.6541,-5.6568,-5.6693,-5.6453,-5.6986,-5.7003,-5.7019,-5.7216,-5.7253,-5.7284,0,0,0,0,0,-5.6136,-5.6326,-5.6275,-5.6302,-5.6425,-5.655,-5.6565,-5.6513,-5.6412,-5.6501,-5.6495,-5.6408,-5.6664,-5.656,-5.6589,-5.6719,-5.6978,-5.6998,-5.7018,-5.72,-5.7245,-5.7284,0,0,0,0,0,0,-5.6323,-5.6327,-5.627,-5.6472,-5.6512,-5.6521,-5.6632,-5.6563,-5.6632,-5.6611,-5.6544,-5.6552,-5.6731,-5.6741,-5.6625,-5.6946,-5.6804,-5.6831,-5.6933,-5.6976,-5.7009,-5.7003,-5.6462,0,0,0,0,0,-5.6388,-5.6489,-5.6486,-5.6665,-5.6687,-5.6657,-5.6709,-5.6665,-5.6704,-5.672,-5.6725,-5.6767,-5.6856,-5.6916,-5.6998,-5.7216,-5.7219,-5.732,-5.7354,-5.7382,-5.7406,-5.7521,-5.7565,-5.7094,-5.7094,-5.7093,0,0,-5.6523,-5.6537,-5.6605,-5.6703,-5.6728,-5.6834,-5.6672,-5.6791,-5.6868,-5.6738,-5.6895,-5.6901,-5.6942,-5.7135,-5.722,-5.7149,-5.7537,-5.7408,-5.7431,-5.7439,-5.7546,-5.7591,-5.763,-5.7108,-5.7105,-5.7103,0,0,-5.6822,-5.6844,-5.6994,-5.7023,-5.7063,-5.7041,-5.7078,-5.7098,-5.7096,-5.7253,-5.7156,-5.7248,-5.7404,-5.7436,-5.7474,-5.7785,-5.7707,-5.7814,-5.7993,-5.8106,-5.8143,-5.8175,-5.8285,-5.8325,-5.7837,-5.7838,-5.7838,0,-5.6985,-5.714,-5.708,-5.7205,-5.725,-5.7137,-5.7287,-5.7319,-5.7385,-5.7418,-5.7337,-5.753,-5.755,-5.7748,-5.7824,-5.7858,-5.7896,-5.781,-5.8142,-5.8174,-5.8204,-5.8308,-5.8349,-5.7851,-5.7849,-5.7848,-5.7847,0,-5.7337,-5.7447,-5.7563,-5.7628,-5.7686,-5.7825,-5.7785,-5.7851,-5.7802,-5.7789,-5.7949,-5.7969,-5.8052,-5.8096,-5.805,-5.8288,-5.8242,-5.8154,-5.8009,-5.8262,-5.8359,-5.8398,-5.7869,-5.7864,-5.786,-5.7857,0,0,-5.7758,-5.7787,-5.7831,-5.7858,-5.7894,-5.7978,-5.811,-5.819,-5.8248,-5.8297,-5.8406,-5.854,-5.8458,-5.85,-5.8456,-5.8556,-5.8799,-5.8454,-5.8454,-5.8516,-5.9061,-5.9126,-5.9174,-5.8748,-5.8755,-5.8761,-5.9057,0,-5.8053,-5.828,-5.8229,-5.8453,-5.8552,-5.8445,-5.856,-5.8595,-5.8586,-5.8669,-5.8658,-5.8754,-5.8639,-5.8663,-5.8757,-5.875,-5.8907,-5.8728,-5.8848,-5.8853,-5.8839,-5.9224,-5.9294,-5.9572,-5.9094,-5.9101,-5.9105,0,-5.8429,-5.8491,-5.8724,-5.8743,-5.8783,-5.8887,-5.8956,-5.9037,-5.9074,-5.906,-5.9107,-5.9044,-5.9174,-5.903,-5.9208,-5.9087,-5.9133,-5.9137,-5.9147,-5.9155,-5.8994,-5.9242,-5.966,-5.9701,-5.9164,-5.916,-5.9155,0,-5.871,-5.8852,-5.901,-5.9037,-5.9063,-5.9139,-5.9153,-5.9182,-5.9233,-5.9294,-5.9326,-5.9402,-5.9443,-5.9503,-5.9462,-5.936,-5.9647,-5.9499,-5.9638,-5.964,-5.9703,-5.9699,-6.0133,-5.9735,-5.9735,-5.9734,-5.9733,0,-5.9045,-5.9191,-5.9136,-5.9233,-5.9394,-5.9334,-5.9495,-5.9497,-5.9523,-5.9618,-5.9531,-5.9622,-5.9562,-5.9649,-5.9617,-5.9769,-5.9789,-5.9781,-5.9771,-5.9788,-5.9789,-5.9816,-5.9796,-5.9745,-5.9742,-5.974,-5.9738,0,-5.9386,-5.9355,-5.9519,-5.953,-5.9536,-5.9654,-5.9663,-5.9753,-5.9737,-5.9859,-5.9884,-5.9859,-5.9956,-5.9921,-6.0025,-6.0004,-6.0197,-6.0162,-6.0184,-6.0175,-6.0316,-6.0302,-6.0781,-6.084,-6.0406,-6.0411,-6.0414,0,-5.96,-5.9711,-5.9733,-5.979,-5.9811,-5.9904,-5.9956,-5.9901,-5.9959,-6.0008,-6.0092,-6.0181,-6.0249,-6.0409,-6.04,-6.0479,-6.0444,-6.0607,-6.0455,-6.0469,-6.0445,-6.0438,-6.0448,-6.0637,-6.0642,-6.0646,-6.0649,0,-5.9985,-5.9964,-6.0041,-6.0114,-6.0178,-6.0233,-6.028,-6.0331,-6.0279,-6.0348,-6.0446,-6.0499,-6.0604,-6.0693,-6.0763,-6.0777,-6.0705,-6.0697,-6.0733,-6.0751,-6.0759,-6.0755,-6.0265,-6.0686,-6.0682,-6.068,-6.0678,-6.0676,-6.0268,-6.036,-6.039,-6.0479,-6.0509,-6.0554,-6.0639,-6.0633,-6.0713,-6.0794,-6.0757,-6.087,-6.0902,-6.0989,-6.1014,-6.1101,-6.1037,-6.109,-6.1103,-6.1117,-6.1134,-6.0747,-6.1114,-6.1112,-6.1111,-6.1111,-6.111,0,-6.0646,-6.066,-6.0743,-6.081,-6.088,-6.0806,-6.0854,-6.0917,-6.1017,-6.1054,-6.1122,-6.1234,-6.1319,-6.1318,-6.1397,-6.1467,-6.1436,-6.149,-6.1483,-6.1487,-6.1187,-6.1147,-6.1513,-6.1513,-6.1513,-6.1513,-6.1513,-6.1513,-6.0851,-6.1002,-6.0985,-6.115,-6.1162,-6.1272,-6.1305,-6.1347,-6.1375,-6.1503,-6.1574,-6.1572,-6.1593,-6.1673,-6.1748,-6.1745,-6.1778,-6.1844,-6.1829,-6.1549,-6.1509,-6.147,-6.1432,-6.1852,-6.1853,-6.2121,-6.2124,-6.2126]},{"header":{"parameterUnit":"m.s-1","parameterCategory":1,"la1":30.2991,"la2":30.254,"lo1":-89.0895,"lo2":-89.0444,"dy":0.0017,"dx":0.0017,"nx":28,"ny":28,"refTime":"2024-10-17T21:00:00:Z","depth":0,"parameterNumber":3,"parameterNumberName":"V-component_of_WINDS"},"data":[0,0,0,0,0,0,0,0,0,0,0,0,0,0,0,0,0,0,0,0,0,0,0,0,0,0,0,0,0,0,0,0,0,0,0,0,0,0,0,0,0,0,0,0,0,0,0,0,0,0,0,0,0,0,0,0,0,0,-2.6117,-2.6117,0,-2.6111,-2.6111,-2.6111,-2.6131,-2.6132,-2.6132,-2.6133,-2.6125,-2.6124,-2.6123,0,0,0,0,0,0,0,0,0,0,0,0,0,-2.6142,-2.6142,-2.6117,-2.6117,-2.6117,-2.6111,-2.6111,-2.6111,-2.6131,-2.6132,-2.6133,-2.6133,-2.6125,-2.6124,-2.6123,0,0,0,0,0,0,0,0,0,0,0,0,0,-2.6133,-2.6141,-2.6117,-2.6126,-2.6127,-2.6111,-2.6111,-2.6111,-2.6131,-2.6132,-2.6133,-2.6134,-2.6125,-2.6124,-2.6123,-2.6098,0,0,-2.612,-2.6119,0,0,0,0,0,0,0,0,-2.6134,-2.6132,-2.6125,-2.6126,-2.6127,-2.6123,-2.6117,-2.6107,-2.6131,-2.6129,-2.6133,-2.6134,-2.6123,-2.6122,-2.6119,-2.6097,-2.6097,-2.6119,-2.6119,-2.6118,-2.6118,0,0,0,0,0,0,0,-2.6134,-2.6133,-2.6115,-2.6125,-2.6126,-2.613,-2.6129,-2.6115,-2.6121,-2.613,-2.6131,-2.613,-2.6124,-2.612,-2.6119,-2.6097,-2.612,-2.6118,-2.6118,-2.6117,-2.605,-2.6048,0,0,0,0,0,0,-2.6134,-2.6133,-2.6115,-2.6115,-2.6133,-2.6128,-2.6128,-2.6123,-2.6122,-2.6122,-2.6129,-2.6131,-2.6122,-2.6121,-2.6119,-2.6086,-2.6118,-2.6117,-2.6117,-2.6051,-2.6049,-2.6048,0,0,0,0,0,0,-2.6135,-2.6132,-2.6115,-2.6124,-2.6122,-2.6127,-2.6121,-2.6123,-2.6119,-2.6121,-2.6122,-2.6125,-2.6123,-2.6121,-2.6102,-2.6086,-2.6117,-2.6116,-2.6052,-2.605,-2.6049,-2.6022,0,0,0,0,0,0,-2.6135,-2.6132,-2.6124,-2.6124,-2.6122,-2.61,-2.612,-2.6122,-2.6117,-2.6119,-2.6117,-2.6118,-2.6123,-2.6104,-2.6101,-2.6085,-2.6115,-2.6053,-2.6051,-2.6049,-2.6024,-2.6019,-2.6015,0,0,0,0,0,-2.6136,-2.6117,-2.6123,-2.6121,-2.6111,-2.6099,-2.6097,-2.6104,-2.6116,-2.6106,-2.6107,-2.6118,-2.6089,-2.6102,-2.6099,-2.6082,-2.6054,-2.6052,-2.6049,-2.6026,-2.602,-2.6015,0,0,0,0,0,0,-2.6115,-2.6117,-2.6124,-2.6105,-2.6101,-2.6102,-2.609,-2.6099,-2.6092,-2.6094,-2.6102,-2.6102,-2.608,-2.608,-2.6094,-2.6055,-2.6073,-2.607,-2.6056,-2.6051,-2.6047,-2.6046,-2.6114,0,0,0,0,0,-2.6108,-2.6098,-2.6101,-2.6083,-2.6081,-2.6086,-2.6081,-2.6086,-2.6083,-2.6081,-2.6081,-2.6077,-2.6066,-2.6059,-2.605,-2.6025,-2.6022,-2.6011,-2.6007,-2.6004,-2.6,-2.5983,-2.5977,-2.604,-2.604,-2.604,0,0,-2.6093,-2.6093,-2.6087,-2.6079,-2.6077,-2.6065,-2.6085,-2.6072,-2.6063,-2.6079,-2.6061,-2.606,-2.6056,-2.6033,-2.6023,-2.6031,-2.5982,-2.6,-2.5998,-2.5996,-2.5979,-2.5973,-2.5968,-2.6038,-2.6039,-2.6039,0,0,-2.606,-2.6061,-2.6044,-2.6041,-2.6038,-2.6041,-2.6037,-2.6036,-2.6036,-2.6018,-2.6029,-2.6018,-2.6001,-2.5996,-2.5991,-2.5953,-2.5961,-2.595,-2.5926,-2.591,-2.5904,-2.59,-2.5883,-2.5877,-2.5947,-2.5947,-2.5947,0,-2.6042,-2.6026,-2.6035,-2.602,-2.6015,-2.603,-2.6012,-2.6009,-2.6002,-2.5997,-2.6008,-2.5984,-2.5982,-2.5956,-2.5947,-2.5944,-2.5937,-2.5949,-2.5905,-2.59,-2.5896,-2.588,-2.5874,-2.5945,-2.5945,-2.5946,-2.5946,0,-2.6002,-2.599,-2.5977,-2.597,-2.5964,-2.5948,-2.5953,-2.5945,-2.595,-2.5952,-2.5931,-2.5929,-2.5918,-2.5913,-2.5919,-2.5887,-2.5892,-2.5904,-2.5921,-2.5888,-2.5873,-2.5867,-2.5943,-2.5943,-2.5944,-2.5944,0,0,-2.5955,-2.5952,-2.5947,-2.5942,-2.5938,-2.5929,-2.5912,-2.5902,-2.5893,-2.5888,-2.5872,-2.5856,-2.5866,-2.586,-2.5865,-2.5851,-2.5816,-2.5864,-2.5864,-2.5852,-2.5777,-2.5765,-2.5758,-2.5823,-2.5822,-2.5821,-2.5776,0,-2.592,-2.5892,-2.5899,-2.5871,-2.5858,-2.5871,-2.5856,-2.5851,-2.5851,-2.5839,-2.584,-2.5826,-2.5842,-2.5838,-2.5825,-2.5824,-2.5801,-2.5827,-2.5805,-2.5804,-2.5803,-2.5751,-2.574,-2.5698,-2.577,-2.5769,-2.5769,0,-2.5875,-2.5867,-2.5838,-2.5833,-2.5828,-2.5815,-2.5803,-2.5793,-2.5787,-2.5787,-2.578,-2.5787,-2.5768,-2.5788,-2.576,-2.5778,-2.5769,-2.5767,-2.5766,-2.5761,-2.5783,-2.5742,-2.5685,-2.5677,-2.576,-2.5761,-2.5761,0,-2.584,-2.5822,-2.5801,-2.5797,-2.5792,-2.5782,-2.5779,-2.5774,-2.5766,-2.5756,-2.575,-2.5738,-2.5731,-2.5721,-2.5723,-2.5738,-2.5693,-2.5714,-2.5691,-2.5691,-2.5679,-2.5679,-2.5616,-2.5679,-2.5679,-2.5679,-2.5679,0,-2.5798,-2.5779,-2.5784,-2.5771,-2.5749,-2.5756,-2.5733,-2.5732,-2.5726,-2.5711,-2.5722,-2.5708,-2.5714,-2.5699,-2.5701,-2.5675,-2.5673,-2.5671,-2.5671,-2.5668,-2.5668,-2.5661,-2.5662,-2.5678,-2.5678,-2.5678,-2.5679,0,-2.5754,-2.5758,-2.5735,-2.5732,-2.573,-2.5713,-2.571,-2.5696,-2.5697,-2.5677,-2.5673,-2.5674,-2.5657,-2.5659,-2.564,-2.5641,-2.5608,-2.5614,-2.561,-2.561,-2.5586,-2.5586,-2.5513,-2.5502,-2.5575,-2.5574,-2.5574,0,-2.5726,-2.5711,-2.5706,-2.5697,-2.5693,-2.5679,-2.567,-2.5676,-2.5666,-2.5656,-2.5642,-2.5626,-2.5613,-2.5585,-2.5582,-2.5567,-2.557,-2.5545,-2.5567,-2.5563,-2.5565,-2.5564,-2.5561,-2.554,-2.5539,-2.5538,-2.5538,0,-2.5675,-2.5677,-2.5665,-2.5652,-2.5641,-2.5631,-2.5623,-2.5614,-2.5619,-2.5607,-2.5589,-2.5579,-2.5559,-2.5541,-2.5526,-2.5521,-2.5528,-2.5531,-2.5524,-2.5519,-2.5516,-2.5513,-2.5594,-2.5532,-2.5533,-2.5533,-2.5533,-2.5534,-2.5636,-2.5622,-2.5615,-2.5599,-2.5593,-2.5584,-2.557,-2.5568,-2.5554,-2.5538,-2.5542,-2.5521,-2.5511,-2.5492,-2.5485,-2.5467,-2.5476,-2.5467,-2.5464,-2.5461,-2.5456,-2.5521,-2.5465,-2.5465,-2.5466,-2.5466,-2.5466,0,-2.5582,-2.5577,-2.5564,-2.555,-2.5537,-2.5547,-2.5537,-2.5525,-2.5506,-2.5498,-2.5484,-2.5462,-2.5444,-2.5439,-2.5422,-2.5408,-2.541,-2.5403,-2.5402,-2.54,-2.5452,-2.5458,-2.54,-2.54,-2.54,-2.54,-2.54,-2.54,-2.5552,-2.5527,-2.5528,-2.5499,-2.5495,-2.5474,-2.5467,-2.5457,-2.545,-2.5424,-2.5409,-2.5407,-2.5399,-2.538,-2.5363,-2.5362,-2.5353,-2.5343,-2.5342,-2.539,-2.5397,-2.5403,-2.5408,-2.5342,-2.5342,-2.5292,-2.5291,-2.5291]}]]